This is the latest recevied weather packets stored in our database for station/object F5PHW-13. If no packets are shown the sender has not sent any weather packets the latest 1 day(s).
| Time | Temp. | Humidity | Pressure | Rain* | Wind** | Luminosity | Snow |
|---|---|---|---|---|---|---|---|
| 1778008280 | 11.67° C | 88% | 1009.7 hPa | 0.25 mm | 0.89 m/s, 22° | - | - |
| 1778007080 | 11.67° C | 88% | 1009.7 hPa | 0.51 mm | 0.89 m/s, 22° | - | - |
| 1778005880 | 11.67° C | 88% | 1009.6 hPa | 0.51 mm | 0.89 m/s, 22° | - | - |
| 1778004680 | 11.67° C | 88% | 1009.5 hPa | 0.51 mm | 0.89 m/s, 22° | - | - |
| 1778003481 | 11.67° C | 87% | 1009.5 hPa | 0.51 mm | 0.89 m/s, 22° | - | - |
| 1778002281 | 12.22° C | 87% | 1009.6 hPa | 0.51 mm | 1.34 m/s, 22° | - | - |
| 1778001081 | 12.22° C | 87% | 1009.7 hPa | 0.76 mm | 0.89 m/s, 45° | - | - |
| 1777999879 | 12.22° C | 87% | 1009.8 hPa | 0.76 mm | 1.34 m/s, 45° | - | - |
| 1777998680 | 12.78° C | 86% | 1009.6 hPa | 0.76 mm | 1.34 m/s, 45° | - | - |
| 1777997479 | 12.78° C | 86% | 1009.5 hPa | 0.51 mm | 1.79 m/s, 45° | - | - |
| 1777996279 | 12.78° C | 86% | 1009.5 hPa | 0.25 mm | 0.45 m/s, 45° | - | - |
| 1777995080 | 12.78° C | 86% | 1009.4 hPa | 0 mm | 0.89 m/s, 45° | - | - |
| 1777993879 | 12.78° C | 85% | 1009.5 hPa | 0 mm | 1.34 m/s, 45° | - | - |
| 1777992680 | 13.33° C | 85% | 1009.5 hPa | 0 mm | 1.34 m/s, 45° | - | - |
| 1777991480 | 13.33° C | 85% | 1009.4 hPa | 0 mm | 2.24 m/s, 45° | - | - |
| 1777990279 | 13.33° C | 85% | 1009.3 hPa | 0 mm | 1.79 m/s, 67° | - | - |
| 1777989080 | 13.33° C | 85% | 1009.4 hPa | 0 mm | 2.24 m/s, 45° | - | - |
| 1777987880 | 13.89° C | 85% | 1009.3 hPa | 0 mm | 1.79 m/s, 45° | - | - |
| 1777986679 | 13.89° C | 85% | 1009.1 hPa | 0 mm | 1.79 m/s, 45° | - | - |
| 1777985479 | 13.33° C | 86% | 1009.2 hPa | 0 mm | 1.34 m/s, 45° | - | - |
| 1777984279 | 13.33° C | 86% | 1009.1 hPa | 0 mm | 1.34 m/s, 22° | - | - |
| 1777983079 | 13.33° C | 86% | 1009 hPa | 0 mm | 1.79 m/s, 45° | - | - |
| 1777981879 | 13.33° C | 86% | 1009.2 hPa | 0 mm | 1.34 m/s, 45° | - | - |
| 1777980679 | 13.33° C | 86% | 1009.3 hPa | 0 mm | 1.79 m/s, 45° | - | - |
| 1777979478 | 12.78° C | 86% | 1009.3 hPa | 0 mm | 0.89 m/s, 22° | - | - |
* Rain latest hour (hover to see other rain measurements)
** Current wind speed in m/s (hover to see current wind gust speed)